Location: Shannon
(40.5500°S, 175.4167°E)
Time: 21:46:54
(UTC+00:00)

Cosmos 1953 - Pass Details

Date: 17 November 2025
Orbit: 476 x 495 km, 82.5° (Epoch: 06 December)

Event Time Altitude Azimuth Distance (km) Brightness Sun altitude
Exits shadow 15:22:40 27° 309° (NW) 960 2.9 -14.5°
Maximum altitude 15:24:07 41° 259° (WSW) 731 2.6 -14.3°
Drops below altitude 10° 15:27:39 10° 187° (S) 1,704 5.3 -13.8°
Sets 15:29:53 0° 179° (S) 2,599 6.4 -13.4°
